Location: *
(28.3744°N, 81.5492°W)
Time: 04:03:15
(UTC+00:00)

NOSS 3-3 (A) - Pass Details

Date: 15 June 2025
Orbit: 714 x 1495 km, 63.4° (Epoch: 07 July)

Event Time Altitude Azimuth Distance (km) Brightness Sun altitude
Exits shadow 08:35:14 36° 272° (W) 1,184 4.1 -21.2°
Maximum altitude 08:36:22 41° 304° (WNW) 1,104 4.2 -21.0°
Drops below altitude 10° 08:41:37 10° 14° (NNE) 2,476 6.9 -20.2°
Sets 08:44:26 0° 21° (NNE) 3,527 8.0 -19.7°
